QPF
0.00 0.00 0.00 0.00 0.00 0.00 0.00 0.00 0.00 0.00 0.00 0.00 0.00 0.00 0.00 0.00 0.00 0.00 0.01 0.00 0.00 0.00 0.00 0.00 0.00 0.00 0.00 0.00 0.00 0.00 0.00 0.00 0.00 0.00 0.00 0.00 0.00 0.00
0.00 0.00 0.00 0.00 0.00 0.00 0.00 0.00 0.00 0.00 0.00 0.00 0.00 0.00 0.00 0.00 0.02 0.01 0.00 0.00 0.00 0.01 0.00 0.00 0.00 0.00 0.00 0.00 0.00 0.00 0.00 0.00 0.00 0.00 0.00 0.00 0.00 0.00
0.00 0.00 0.00 0.00 0.00 0.00 0.00 0.00 0.00 0.00 0.00 0.00 0.00 0.00 0.00 0.00 0.00 0.00 0.00 0.00 0.00 0.00 0.00 0.00 0.00 0.00 0.00 0.00 0.00 0.00 0.00 0.00 0.00 0.00 0.00 0.00 0.00 0.00
0.01 0.00 0.00 0.00 0.00 0.00 0.00 0.00 0.00 0.00 0.00 0.01 0.01 0.01 0.04 0.02 0.00 0.00 0.00 0.00 0.00 0.00 0.00 0.00 0.01 0.01 0.01 0.00 0.00 0.00 0.00 0.00 0.00 0.00 0.00 0.00 0.00 0.00
0.01 0.00 0.00 0.00 0.00 0.00 0.00 0.00 0.00 0.00 0.00 0.01 0.00 0.00 0.06 0.02 0.00 0.00 0.00 0.00 0.00 0.00 0.00 0.02 0.02 0.02 0.03 0.02 0.00 0.00 0.00 0.00 0.00 0.00 0.00 0.00 0.00 0.00
0.02 0.04 0.02 0.02 0.05 0.03 0.01 0.00 0.00 0.00 0.00 0.00 0.00 0.00 0.00 0.00 0.00 0.00 0.00 0.00 0.00 0.00 0.00 0.03 0.05 0.04 0.06 0.14 0.08 0.01 0.06 0.14 0.01 0.00 0.00 0.00 0.00 0.00
0.00 0.01 0.04 0.05 0.07 0.06 0.04 0.01 0.00 0.00 0.00 0.00 0.00 0.00 0.00 0.00 0.00 0.00 0.00 0.00 0.00 0.00 0.00 0.01 0.01 0.01 0.03 0.08 0.07 0.08 0.09 0.07 0.03 0.10 0.21 0.12 0.01 0.00
0.00 0.00 0.01 0.04 0.10 0.08 0.01 0.00 0.00 0.00 0.00 0.00 0.00 0.00 0.00 0.00 0.00 0.00 0.00 0.00 0.00 0.00 0.00 0.00 0.00 0.00 0.01 0.05 0.06 0.06 0.03 0.03 0.03 0.07 0.30 0.34 0.09 0.03
0.08 0.00 0.00 0.00 0.00 0.01 0.01 0.01 0.00 0.00 0.00 0.00 0.00 0.00 0.00 0.00 0.00 0.00 0.00 0.00 0.00 0.00 0.00 0.00 0.00 0.00 0.00 0.00 0.00 0.02 0.01 0.01 0.02 0.08 0.19 0.20 0.10 0.09
0.08 0.04 0.01 0.00 0.00 0.00 0.00 0.00 0.00 0.00 0.00 0.00 0.00 0.00 0.00 0.00 0.00 0.00 0.00 0.00 0.00 0.00 0.00 0.00 0.00 0.00 0.00 0.00 0.00 0.00 0.00 0.00 0.00 0.02 0.06 0.04 0.01 0.02
0.06 0.07 0.05 0.02 0.01 0.01 0.01 0.00 0.00 0.00 0.00 0.00 0.00 0.00 0.00 0.00 0.00 0.00 0.00 0.00 0.00 0.00 0.00 0.00 0.00 0.00 0.00 0.00 0.00 0.00 0.00 0.00 0.00 0.00 0.00 0.00 0.01 0.00
0.03 0.02 0.01 0.01 0.01 0.01 0.01 0.00 0.00 0.00 0.00 0.00 0.00 0.00 0.00 0.00 0.00 0.00 0.00 0.00 0.00 0.00 0.00 0.00 0.00 0.00 0.00 0.00 0.00 0.00 0.00 0.00 0.00 0.00 0.00 0.00 0.00 0.00
0.00 0.00 0.00 0.00 0.00 0.00 0.00 0.00 0.00 0.00 0.00 0.00 0.00 0.00 0.00 0.00 0.00 0.00 0.00 0.00 0.00 0.00 0.00 0.00 0.00 0.00 0.00 0.00 0.00 0.00 0.00 0.00 0.00 0.00 0.00 0.00 0.00 0.00
0.00 0.00 0.00 0.00 0.00 0.00 0.00 0.00 0.00 0.00 0.00 0.00 0.00 0.00 0.00 0.00 0.00 0.00 0.00 0.00 0.00 0.00 0.00 0.00 0.00 0.00 0.00 0.00 0.00 0.00 0.00 0.00 0.00 0.00 0.00 0.00 0.00 0.00
0.00 0.00 0.00 0.00 0.00 0.00 0.00 0.00 0.00 0.00 0.00 0.00 0.00 0.00 0.00 0.00 0.00 0.00 0.00 0.00 0.00 0.00 0.00 0.00 0.00 0.00 0.00 0.00 0.00 0.00 0.00 0.00 0.00 0.00 0.00 0.00 0.00 0.00
0.00 0.00 0.00 0.00 0.00 0.00 0.00 0.00 0.00 0.00 0.00 0.00 0.00 0.00 0.00 0.00 0.00 0.00 0.00 0.00 0.00 0.00 0.00 0.00 0.00 0.00 0.00 0.00 0.00 0.00 0.00 0.00 0.00 0.00 0.00 0.00 0.00 0.00
0.00 0.00 0.00 0.00 0.00 0.00 0.00 0.00 0.00 0.00 0.00 0.00 0.00 0.00 0.00 0.00 0.00 0.00 0.00 0.00 0.00 0.00 0.00 0.00 0.00 0.00 0.00 0.00 0.00 0.00 0.00 0.00 0.00 0.00 0.00 0.00 0.00 0.00
0.00 0.00 0.00 0.00 0.00 0.00 0.00 0.00 0.00 0.00 0.00 0.00 0.00 0.00 0.00 0.00 0.00 0.00 0.00 0.00 0.00 0.00 0.00 0.00 0.00 0.00 0.00 0.00 0.00 0.00 0.00 0.00 0.00 0.00 0.00 0.00 0.00 0.00
0.00 0.00 0.00 0.00 0.00 0.00 0.00 0.00 0.00 0.00 0.00 0.00 0.00 0.00 0.00 0.00 0.00 0.00 0.00 0.00 0.00 0.00 0.00 0.00 0.00 0.00 0.00 0.00 0.00 0.00 0.00 0.00 0.00 0.00 0.00 0.00 0.00 0.00
0.00 0.00 0.00 0.00 0.00 0.00 0.00 0.00 0.00 0.00 0.00 0.00 0.00 0.00 0.00 0.00 0.00 0.00 0.00 0.00 0.00 0.00 0.00 0.00 0.00 0.00 0.00 0.00 0.00 0.00 0.00 0.00 0.00 0.00 0.00 0.00 0.00 0.00
0.00 0.00 0.00 0.00 0.00 0.00 0.00 0.00 0.00 0.00 0.00 0.00 0.00 0.00 0.00 0.00 0.00 0.00 0.00 0.00 0.00 0.00 0.00 0.00 0.00 0.00 0.00 0.00 0.00 0.00 0.00 0.00 0.00 0.00 0.00 0.00 0.00 0.00
0.00 0.00 0.00 0.00 0.00 0.00 0.00 0.00 0.00 0.00 0.00 0.00 0.00 0.00 0.00 0.00 0.00 0.00 0.00 0.00 0.00 0.00 0.00 0.00 0.00 0.00 0.00 0.00 0.00 0.00 0.00 0.00 0.00 0.00 0.00 0.00 0.00 0.00
0.00 0.00 0.00 0.00 0.00 0.00 0.00 0.00 0.00 0.00 0.00 0.00 0.00 0.00 0.00 0.00 0.00 0.00 0.00 0.00 0.00 0.00 0.00 0.00 0.00 0.00 0.00 0.00 0.00 0.00 0.00 0.00 0.00 0.00 0.00 0.00 0.00 0.00
MSLP
1020.35 1020.30 1020.48 1020.58 1020.72 1020.62 1020.84 1020.96 1021.06 1021.43 1021.08 1020.03 1019.60 1018.33 1018.01 1017.92 1017.91 1017.81 1017.58 1017.26 1017.03 1016.96 1016.36 1016.02 1016.01 1015.98 1016.05 1016.07 1016.02 1015.98 1016.02 1016.04 1016.12 1016.19 1016.26 1016.42 1016.49 1016.61
1020.47 1020.42 1020.42 1020.42 1020.47 1020.48 1020.44 1020.44 1020.68 1020.75 1021.14 1020.19 1019.70 1019.03 1018.53 1018.25 1018.12 1018.09 1017.53 1017.41 1017.28 1017.32 1016.61 1016.29 1016.39 1016.38 1016.17 1015.86 1015.58 1015.44 1015.64 1015.80 1015.92 1016.03 1016.12 1016.18 1016.21 1016.30
1020.24 1020.38 1020.42 1020.36 1020.36 1020.32 1020.32 1020.36 1020.49 1020.42 1020.84 1020.20 1019.81 1019.11 1018.98 1018.90 1018.46 1018.21 1017.88 1017.78 1017.44 1017.18 1016.82 1016.69 1016.64 1016.56 1016.16 1015.53 1015.02 1014.92 1015.19 1015.52 1015.72 1015.80 1015.92 1015.97 1016.04 1016.12
1020.05 1020.05 1020.05 1020.15 1020.15 1020.09 1020.06 1020.08 1020.10 1020.17 1020.39 1020.36 1020.12 1019.74 1019.45 1019.32 1018.88 1018.71 1018.18 1017.83 1017.72 1017.46 1017.32 1017.16 1016.99 1016.93 1016.57 1016.06 1015.03 1015.22 1015.43 1015.78 1015.92 1015.96 1015.98 1015.90 1015.88 1015.84
1019.75 1019.78 1019.81 1019.93 1020.10 1020.00 1019.96 1019.94 1019.97 1020.01 1020.02 1020.19 1020.27 1020.04 1019.81 1019.55 1019.24 1018.83 1018.59 1018.36 1017.93 1017.70 1017.63 1017.62 1017.60 1017.48 1017.21 1016.55 1016.26 1015.92 1016.06 1016.14 1016.10 1015.95 1015.79 1015.72 1015.66 1015.68
1019.63 1019.68 1019.66 1019.79 1019.97 1019.97 1020.12 1020.10 1020.03 1020.10 1020.19 1020.20 1020.17 1020.22 1020.20 1019.87 1019.65 1019.63 1019.35 1018.97 1018.75 1018.36 1018.28 1018.17 1018.16 1018.08 1017.93 1017.37 1017.63 1017.31 1017.02 1017.10 1016.70 1016.46 1016.08 1015.84 1015.85 1016.05
1019.53 1019.63 1019.66 1019.77 1019.76 1019.80 1019.93 1020.02 1020.10 1020.17 1020.32 1020.39 1020.48 1020.51 1020.52 1020.42 1020.32 1020.08 1019.79 1019.56 1019.46 1019.34 1019.13 1018.73 1018.71 1018.75 1018.82 1018.61 1018.54 1018.31 1018.06 1017.78 1017.54 1017.25 1016.86 1016.39 1016.25 1016.21
1019.66 1019.74 1019.78 1019.83 1019.90 1019.78 1019.86 1019.92 1019.96 1020.12 1020.31 1020.36 1020.50 1020.60 1020.47 1020.43 1020.30 1020.25 1020.21 1020.20 1020.19 1019.59 1019.84 1019.57 1019.20 1019.43 1019.78 1019.62 1019.53 1019.22 1018.70 1018.36 1018.10 1017.83 1017.43 1017.16 1017.19 1017.16
1019.56 1019.75 1020.06 1020.12 1020.11 1020.16 1020.06 1019.92 1019.93 1019.92 1019.87 1020.12 1020.52 1020.48 1020.40 1020.28 1020.24 1020.24 1020.26 1020.36 1020.56 1020.57 1020.21 1020.07 1019.88 1019.97 1020.26 1020.13 1020.00 1019.76 1019.46 1019.16 1019.06 1018.68 1018.21 1017.99 1017.88 1017.55
1020.01 1020.25 1020.49 1020.31 1020.35 1020.44 1020.50 1020.42 1020.30 1020.21 1020.13 1020.01 1020.12 1020.22 1020.20 1020.11 1020.20 1020.14 1020.20 1020.45 1020.69 1020.94 1020.80 1020.88 1020.56 1020.67 1020.36 1020.57 1020.54 1020.32 1020.18 1020.07 1019.90 1019.66 1019.28 1018.75 1018.44 1018.51
1020.32 1020.58 1020.84 1020.85 1020.50 1020.60 1020.60 1020.74 1020.75 1020.71 1020.43 1020.37 1020.30 1020.32 1020.40 1020.27 1020.19 1020.34 1020.67 1020.86 1021.29 1021.50 1021.58 1021.66 1021.58 1021.36 1021.06 1021.28 1021.02 1021.06 1021.09 1020.78 1020.59 1020.36 1020.00 1019.79 1019.33 1018.87
1020.08 1020.61 1020.80 1020.88 1020.85 1020.85 1020.84 1020.99 1021.16 1021.36 1021.08 1020.94 1021.08 1020.83 1020.83 1020.89 1020.69 1020.88 1021.08 1021.43 1021.93 1022.39 1022.26 1022.24 1022.04 1021.95 1021.89 1021.83 1021.73 1021.63 1021.50 1021.32 1021.10 1020.85 1020.82 1020.68 1019.97 1019.54
1020.42 1020.85 1021.13 1021.04 1021.08 1021.00 1020.92 1021.09 1021.38 1021.62 1021.80 1021.78 1021.96 1022.15 1022.06 1022.04 1021.94 1021.85 1021.79 1022.08 1022.37 1023.00 1022.94 1022.71 1023.05 1022.74 1022.50 1022.39 1022.58 1022.65 1022.86 1022.41 1021.97 1021.51 1021.03 1020.73 1020.76 1020.63
1021.25 1021.52 1021.51 1021.45 1021.28 1021.27 1021.46 1021.58 1021.52 1021.60 1022.27 1022.73 1022.93 1023.17 1023.19 1023.21 1023.19 1022.92 1023.17 1023.22 1023.33 1023.69 1023.53 1023.17 1023.56 1023.52 1023.27 1023.06 1023.36 1023.40 1022.99 1022.98 1023.06 1022.92 1022.36 1021.56 1021.20 1021.24
1021.28 1021.62 1021.77 1021.73 1021.64 1021.83 1021.88 1021.88 1021.99 1022.16 1022.53 1023.09 1023.70 1024.06 1023.92 1023.86 1023.67 1023.55 1023.76 1024.12 1023.96 1024.05 1023.78 1024.01 1024.11 1023.90 1023.66 1024.17 1024.38 1024.32 1023.96 1023.72 1023.36 1023.12 1022.87 1022.84 1022.17 1021.72
1021.48 1021.76 1021.90 1022.06 1022.11 1022.36 1022.53 1022.61 1022.86 1023.09 1023.20 1023.60 1023.91 1024.10 1023.98 1024.14 1024.40 1024.41 1024.34 1024.40 1024.60 1024.89 1024.60 1024.38 1024.33 1024.11 1024.60 1024.66 1024.81 1025.03 1024.87 1024.76 1024.15 1023.76 1023.55 1022.97 1022.74 1022.44
1022.18 1022.25 1022.26 1022.50 1022.92 1023.30 1023.62 1023.78 1023.90 1023.94 1023.96 1024.14 1024.47 1024.78 1024.98 1025.06 1025.20 1025.07 1025.29 1025.46 1025.87 1025.90 1025.57 1025.10 1024.88 1024.76 1024.50 1024.78 1025.35 1025.50 1025.39 1025.13 1025.07 1024.49 1023.64 1023.38 1022.90 1022.52
1022.27 1022.42 1022.64 1023.12 1023.32 1023.64 1024.13 1024.31 1024.22 1024.60 1024.87 1024.98 1025.23 1025.50 1025.56 1025.74 1025.95 1025.96 1026.08 1026.28 1026.63 1026.74 1026.63 1026.27 1025.64 1025.38 1025.40 1025.28 1025.39 1026.00 1025.73 1025.55 1025.18 1024.86 1024.39 1023.90 1023.34 1022.85
1022.17 1022.44 1022.27 1022.97 1023.87 1024.10 1024.49 1024.86 1025.29 1025.52 1025.57 1025.53 1025.58 1025.81 1026.25 1026.27 1026.55 1026.66 1026.57 1026.74 1027.18 1027.45 1027.28 1026.94 1026.78 1026.38 1026.44 1026.59 1026.15 1025.76 1025.99 1025.58 1025.26 1024.93 1024.57 1024.38 1023.82 1022.76
1022.49 1022.21 1022.76 1023.07 1023.90 1024.29 1024.86 1025.13 1025.56 1025.72 1026.09 1026.31 1026.33 1026.45 1026.78 1026.77 1026.93 1027.25 1027.16 1027.03 1027.37 1027.59 1027.43 1027.22 1027.02 1026.90 1026.98 1027.23 1026.93 1026.34 1025.89 1025.85 1025.40 1025.03 1024.56 1024.00 1023.41 1022.38
1022.44 1022.43 1022.77 1023.07 1023.74 1024.40 1025.09 1025.18 1025.46 1026.22 1026.67 1026.41 1026.71 1027.13 1027.45 1027.39 1027.46 1027.50 1027.50 1027.64 1027.66 1027.67 1027.56 1027.54 1027.42 1026.99 1027.05 1027.07 1026.92 1026.38 1025.94 1025.42 1024.98 1024.63 1024.40 1023.91 1023.28 1022.21
1022.42 1022.77 1022.98 1023.33 1023.41 1024.47 1025.13 1025.29 1025.54 1025.91 1026.66 1026.89 1027.08 1027.30 1027.72 1027.51 1027.78 1027.86 1027.80 1027.79 1027.95 1027.84 1027.75 1027.52 1027.34 1027.23 1027.18 1027.37 1027.34 1026.65 1025.70 1024.85 1024.61 1024.18 1023.70 1023.58 1023.20 1022.64
1022.12 1022.58 1023.22 1023.54 1024.14 1024.42 1024.70 1025.10 1025.71 1026.04 1026.30 1026.82 1027.02 1027.52 1027.87 1028.00 1028.30 1028.29 1028.06 1027.88 1027.64 1027.58 1027.56 1027.51 1027.38 1027.36 1027.41 1027.41 1027.23 1026.62 1026.05 1025.50 1024.66 1023.56 1023.04 1022.78 1022.29 1021.77
Thickness
5770 5770 5768 5766 5765 5766 5763 5762 5757 5748 5750 5763 5763 5777 5779 5778 5776 5775 5777 5778 5777 5779 5783 5783 5781 5776 5774 5773 5773 5773 5772 5770 5768 5767 5764 5760 5758 5755
5768 5767 5767 5767 5767 5768 5767 5766 5764 5760 5750 5762 5765 5771 5774 5775 5774 5773 5776 5776 5775 5775 5780 5781 5776 5775 5775 5777 5779 5779 5777 5774 5772 5770 5768 5765 5763 5760
5767 5766 5766 5768 5767 5768 5769 5768 5766 5765 5754 5762 5766 5771 5770 5769 5771 5772 5773 5773 5775 5776 5777 5778 5775 5775 5778 5781 5787 5787 5784 5780 5776 5774 5771 5769 5767 5765
5765 5766 5767 5768 5768 5769 5769 5767 5767 5766 5762 5758 5760 5762 5764 5766 5767 5768 5770 5771 5771 5772 5773 5773 5773 5772 5776 5779 5789 5786 5783 5778 5775 5774 5772 5771 5769 5767
5764 5765 5766 5766 5764 5766 5767 5766 5765 5765 5764 5759 5756 5760 5762 5763 5763 5766 5767 5767 5769 5769 5769 5767 5766 5767 5771 5776 5778 5780 5777 5775 5774 5774 5774 5773 5772 5770
5762 5761 5762 5762 5761 5762 5761 5762 5762 5761 5760 5758 5756 5755 5755 5758 5758 5756 5757 5760 5761 5761 5760 5760 5759 5759 5761 5765 5764 5766 5769 5766 5768 5768 5770 5769 5767 5765
5759 5758 5758 5758 5759 5759 5758 5757 5757 5756 5754 5753 5752 5750 5748 5748 5747 5750 5752 5754 5753 5751 5751 5752 5751 5750 5750 5752 5753 5755 5757 5759 5759 5759 5761 5761 5760 5760
5751 5751 5751 5752 5752 5754 5754 5754 5754 5752 5749 5748 5747 5744 5745 5746 5747 5746 5744 5742 5737 5745 5740 5741 5744 5742 5740 5741 5741 5744 5748 5749 5751 5752 5753 5752 5749 5749
5748 5746 5744 5744 5745 5745 5744 5746 5747 5749 5750 5747 5741 5742 5741 5743 5742 5740 5739 5737 5733 5732 5733 5731 5736 5733 5730 5731 5732 5732 5735 5738 5737 5739 5742 5742 5741 5742
5740 5736 5733 5734 5735 5736 5734 5733 5735 5738 5741 5743 5742 5739 5738 5737 5735 5735 5735 5733 5730 5724 5724 5718 5722 5720 5721 5720 5722 5724 5724 5723 5723 5723 5725 5728 5730 5728
5730 5727 5723 5723 5725 5726 5726 5724 5724 5724 5727 5730 5733 5732 5730 5730 5729 5726 5721 5720 5718 5716 5712 5707 5702 5707 5711 5707 5709 5709 5709 5711 5712 5711 5711 5711 5713 5716
5723 5719 5717 5717 5717 5715 5714 5713 5710 5710 5712 5714 5714 5718 5718 5716 5717 5715 5712 5707 5702 5699 5700 5698 5694 5691 5694 5696 5695 5696 5697 5698 5699 5700 5696 5694 5699 5702
5711 5709 5707 5708 5708 5707 5708 5706 5702 5699 5697 5697 5697 5695 5694 5695 5697 5697 5698 5694 5690 5685 5686 5687 5682 5683 5682 5683 5679 5677 5674 5677 5681 5684 5687 5687 5683 5683
5695 5694 5695 5696 5697 5696 5694 5693 5692 5690 5683 5680 5680 5678 5678 5678 5681 5683 5679 5679 5678 5674 5675 5677 5672 5670 5669 5670 5664 5663 5669 5663 5659 5659 5663 5670 5672 5668
5688 5684 5683 5683 5684 5682 5682 5682 5680 5679 5676 5672 5666 5664 5666 5668 5670 5671 5667 5662 5664 5661 5663 5662 5661 5661 5660 5653 5649 5647 5646 5649 5650 5649 5648 5645 5652 5654
5679 5676 5674 5671 5671 5669 5668 5667 5665 5663 5663 5661 5660 5658 5658 5655 5653 5654 5655 5654 5650 5645 5645 5646 5646 5647 5642 5640 5638 5633 5630 5627 5631 5633 5632 5635 5634 5635
5664 5662 5662 5660 5655 5652 5649 5648 5647 5647 5648 5646 5643 5641 5639 5637 5635 5637 5634 5632 5627 5627 5630 5632 5631 5630 5630 5626 5619 5617 5615 5615 5613 5615 5620 5619 5620 5619
5654 5651 5648 5643 5642 5639 5635 5635 5635 5632 5630 5629 5626 5624 5623 5621 5618 5618 5615 5612 5608 5605 5605 5606 5609 5609 5608 5607 5604 5598 5598 5597 5598 5599 5600 5600 5600 5602
5643 5637 5637 5630 5622 5622 5619 5615 5612 5610 5610 5611 5611 5610 5605 5603 5600 5598 5598 5595 5590 5586 5584 5584 5583 5583 5579 5574 5578 5578 5575 5576 5577 5578 5579 5578 5579 5586
5620 5623 5617 5615 5609 5606 5601 5599 5595 5594 5591 5589 5588 5587 5583 5583 5580 5577 5576 5575 5571 5567 5567 5565 5564 5562 5559 5554 5554 5557 5556 5553 5555 5556 5558 5560 5560 5562
5603 5603 5600 5598 5593 5589 5584 5582 5580 5574 5569 5571 5569 5563 5560 5560 5558 5557 5556 5552 5549 5547 5546 5544 5543 5541 5541 5538 5535 5535 5536 5536 5538 5538 5537 5539 5541 5544
5586 5582 5580 5579 5579 5572 5565 5562 5559 5556 5550 5548 5546 5542 5537 5539 5535 5533 5532 5530 5527 5525 5523 5522 5522 5521 5519 5515 5511 5513 5515 5518 5516 5514 5515 5513 5514 5516
5569 5564 5559 5557 5553 5551 5547 5543 5538 5536 5533 5528 5525 5519 5516 5514 5510 5509 5509 5507 5507 5505 5502 5500 5499 5498 5495 5492 5490 5490 5492 5493 5495 5500 5497 5494 5493 5493